KB7STN Weather Reports


Display with metric or nautical units.
time (UTC)temp
F
wind
direction
speed
MPH
gust
MPH
rain 1hr
in
rain 24hr
in
rain mn
in
humidity
%
barometer
mb
20260507173212 64 198 4.0 9.0 0.00 0.00 0.00 31 1010.3
20260507172712 64 189 4.0 8.0 0.00 0.00 0.00 31 1010.4
20260507172212 63 213 4.0 8.0 0.00 0.00 0.00 31 1010.4
20260507171712 63 209 4.0 9.0 0.00 0.00 0.00 31 1010.5
20260507171212 63 220 4.0 8.0 0.00 0.00 0.00 31 1010.7
20260507170712 62 167 4.0 9.0 0.00 0.00 0.00 31 1010.6
20260507170212 61 211 5.0 11.0 0.00 0.00 0.00 31 1010.7
20260507165712 60 194 5.0 9.0 0.00 0.00 0.00 31 1010.6
20260507165212 59 209 5.0 11.0 0.00 0.00 0.00 31 1010.8
20260507164712 59 215 5.0 9.0 0.00 0.00 0.00 31 1010.9
20260507164212 59 190 5.0 10.0 0.00 0.00 0.00 33 1010.9
20260507163712 58 215 5.0 10.0 0.00 0.00 0.00 32 1011.0
20260507163212 58 160 5.0 12.0 0.00 0.00 0.00 30 1010.9
20260507162712 59 207 4.0 8.0 0.00 0.00 0.00 30 1010.9
20260507162212 59 217 5.0 9.0 0.00 0.00 0.00 31 1010.8
20260507161712 59 208 5.0 10.0 0.00 0.00 0.00 30 1011.0
20260507161212 59 217 4.0 8.0 0.00 0.00 0.00 31 1011.0
20260507160712 58 191 4.0 12.0 0.00 0.00 0.00 31 1011.0
20260507160212 58 194 5.0 8.0 0.00 0.00 0.00 31 1010.9
20260507155712 57 203 5.0 12.0 0.00 0.00 0.00 32 1010.8
20260507155212 56 201 5.0 10.0 0.00 0.00 0.00 33 1010.7
20260507154712 56 200 5.0 12.0 0.00 0.00 0.00 32 1010.9
20260507154212 56 213 5.0 11.0 0.00 0.00 0.00 32 1011.0
20260507153712 56 207 5.0 8.0 0.00 0.00 0.00 32 1011.0
20260507153212 56 215 5.0 10.0 0.00 0.00 0.00 31 1011.2
20260507152712 56 190 5.0 13.0 0.00 0.00 0.00 32 1011.0
20260507152212 56 205 5.0 10.0 0.00 0.00 0.00 30 1010.8
20260507151712 57 213 5.0 12.0 0.00 0.00 0.00 30 1010.9
20260507151212 57 200 4.0 8.0 0.00 0.00 0.00 28 1010.9
20260507150712 58 204 4.0 10.0 0.00 0.00 0.00 28 1011.0
20260507150212 58 217 4.0 10.0 0.00 0.00 0.00 28 1010.9
20260507145712 58 263 3.0 7.0 0.00 0.00 0.00 28 1011.1
20260507145212 57 216 3.0 7.0 0.00 0.00 0.00 29 1011.1
20260507144712 57 185 3.0 7.0 0.00 0.00 0.00 29 1010.9
20260507144212 57 260 2.0 8.0 0.00 0.00 0.00 30 1011.0
20260507143712 56 284 3.0 6.0 0.00 0.00 0.00 31 1011.1
20260507143212 55 290 2.0 10.0 0.00 0.00 0.00 31 1011.4
20260507142712 55 262 2.0 4.0 0.00 0.00 0.00 32 1011.2
20260507142212 55 284 3.0 10.0 0.00 0.00 0.00 33 1011.3
20260507141712 55 274 2.0 7.0 0.00 0.00 0.00 34 1011.3
20260507141213 54 277 1.0 5.0 0.00 0.00 0.00 34 1011.3
20260507140712 54 277 1.0 5.0 0.00 0.00 0.00 35 1011.4
20260507140212 54 277 1.0 4.0 0.00 0.00 0.00 35 1011.4
20260507135712 54 277 1.0 9.0 0.00 0.00 0.00 35 1011.3
20260507135212 53 276 1.0 2.0 0.00 0.00 0.00 37 1011.4
20260507134712 53 276 2.0 7.0 0.00 0.00 0.00 36 1011.3
20260507134212 53 273 2.0 11.0 0.00 0.00 0.00 36 1011.4
20260507133712 52 286 2.0 11.0 0.00 0.00 0.00 36 1011.3
20260507133212 51 173 1.0 6.0 0.00 0.00 0.00 38 1011.4
20260507132712 50 188 0.0 3.0 0.00 0.00 0.00 41 1011.4
20260507132213 49 189 0.0 1.0 0.00 0.00 0.00 42 1011.5
20260507131712 49 189 0.0 3.0 0.00 0.00 0.00 42 1011.4
20260507131212 49 188 0.0 1.0 0.00 0.00 0.00 41 1011.2
20260507130712 49 188 0.0 2.0 0.00 0.00 0.00 41 1011.2
20260507130213 49 186 1.0 2.0 0.00 0.00 0.00 40 1011.2
20260507125712 49 186 1.0 5.0 0.00 0.00 0.00 38 1011.3
20260507125213 49 172 1.0 2.0 0.00 0.00 0.00 40 1011.5
20260507124713 49 172 1.0 4.0 0.00 0.00 0.00 39 1011.3
20260507124213 49 169 1.0 9.0 0.00 0.00 0.00 38 1011.4
20260507123713 49 158 0.0 3.0 0.00 0.00 0.00 40 1011.5
20260507123213 49 156 2.0 2.0 0.00 0.00 0.00 40 1011.5
20260507122713 48 156 2.0 12.0 0.00 0.00 0.00 39 1011.3
20260507122213 47 278 1.0 3.0 0.00 0.00 0.00 41 1011.2
20260507121713 47 278 1.0 3.0 0.00 0.00 0.00 41 1011.3
20260507121213 47 278 1.0 3.0 0.00 0.00 0.00 42 1011.3
20260507120713 48 278 1.0 2.0 0.00 0.00 0.00 41 1011.2
20260507120213 48 278 1.0 3.0 0.00 0.00 0.00 40 1011.1
20260507115713 48 278 0.0 2.0 0.00 0.00 0.00 39 1011.2
20260507115213 49 278 0.0 0.0 0.00 0.00 0.00 40 1011.2
20260507114713 49 278 0.0 0.0 0.00 0.00 0.00 38 1011.3
20260507114213 50 278 0.0 2.0 0.00 0.00 0.00 37 1011.3
20260507113713 50 278 0.0 2.0 0.00 0.00 0.00 37 1011.4
20260507113213 51 278 1.0 2.0 0.00 0.00 0.00 36 1011.6
20260507112713 51 278 1.0 2.0 0.00 0.00 0.00 35 1011.6
20260507112213 52 278 1.0 2.0 0.00 0.00 0.00 34 1011.7
20260507111713 53 278 2.0 3.0 0.00 0.00 0.00 34 1011.6
20260507111213 54 278 3.0 6.0 0.00 0.00 0.00 31 1011.6
20260507110713 54 278 3.0 11.0 0.00 0.00 0.00 30 1011.5
20260507110213 54 215 2.0 7.0 0.00 0.00 0.00 30 1011.5
20260507105713 54 220 2.0 7.0 0.00 0.00 0.00 30 1011.7
20260507105213 53 205 3.0 8.0 0.00 0.00 0.00 30 1011.7
20260507104713 53 222 3.0 7.0 0.00 0.00 0.00 30 1011.9
20260507104213 53 229 3.0 7.0 0.00 0.00 0.00 31 1011.7
20260507103713 53 235 2.0 8.0 0.00 0.00 0.00 31 1011.9
20260507103213 53 289 2.0 13.0 0.00 0.00 0.00 31 1011.9
20260507102713 52 254 2.0 5.0 0.00 0.00 0.00 32 1011.9
20260507102213 52 251 2.0 7.0 0.00 0.00 0.00 32 1012.0
20260507101713 52 257 2.0 5.0 0.00 0.00 0.00 34 1012.0
20260507101213 51 258 3.0 9.0 0.00 0.00 0.00 34 1011.9
20260507100713 51 254 3.0 7.0 0.00 0.00 0.00 35 1011.9
20260507100213 51 257 3.0 11.0 0.00 0.00 0.00 36 1012.1
20260507095713 50 290 3.0 7.0 0.00 0.00 0.00 37 1012.0
20260507095213 49 49 2.0 8.0 0.00 0.00 0.00 39 1012.2
20260507094713 49 182 1.0 3.0 0.00 0.00 0.00 39 1012.3
20260507094213 49 183 0.0 2.0 0.00 0.00 0.00 38 1012.5
20260507093713 49 183 0.0 2.0 0.00 0.00 0.00 39 1012.5
20260507093213 50 183 1.0 2.0 0.00 0.00 0.00 38 1012.6
20260507092713 50 183 1.0 3.0 0.00 0.00 0.00 38 1012.6
20260507092213 50 183 1.0 3.0 0.00 0.00 0.00 36 1012.6
20260507091713 50 184 1.0 3.0 0.00 0.00 0.00 37 1012.7
20260507091213 50 184 1.0 2.0 0.00 0.00 0.00 37 1012.7
20260507090713 50 184 1.0 0.0 0.00 0.02 0.00 36 1012.8
20260507090213 51 184 1.0 2.0 0.00 0.02 0.00 36 1012.9
20260507085713 51 182 1.0 3.0 0.00 0.02 0.00 36 1012.8
20260507085213 51 182 2.0 5.0 0.00 0.02 0.00 36 1012.8
20260507084713 51 0 2.0 6.0 0.00 0.02 0.00 35 1012.8
20260507084213 51 9 1.0 3.0 0.00 0.02 0.00 37 1013.0
20260507083713 51 9 1.0 3.0 0.00 0.02 0.00 36 1012.9
20260507083213 51 9 1.0 2.0 0.00 0.02 0.00 36 1013.2
20260507082713 51 9 2.0 4.0 0.00 0.02 0.00 36 1013.1
20260507082213 50 9 2.0 4.0 0.00 0.02 0.00 37 1013.1
20260507081713 50 23 2.0 4.0 0.00 0.02 0.00 35 1013.0
20260507081213 50 13 1.0 4.0 0.00 0.02 0.00 38 1013.1
20260507080713 49 11 1.0 5.0 0.00 0.09 0.00 39 1013.3
20260507080213 49 355 1.0 7.0 0.00 0.09 0.00 40 1013.2
20260507075713 49 38 1.0 2.0 0.00 0.09 0.00 40 1013.2
20260507075213 49 38 1.0 5.0 0.00 0.09 0.00 40 1013.3
20260507074713 49 38 0.0 0.0 0.00 0.09 0.00 40 1013.3
20260507074213 49 38 1.0 2.0 0.00 0.09 0.00 40 1013.4
20260507073713 49 38 0.0 3.0 0.00 0.09 0.00 40 1013.3
20260507073213 49 38 0.0 2.0 0.00 0.09 0.00 40 1013.4
20260507072713 49 38 0.0 2.0 0.00 0.09 0.00 41 1013.6
20260507072213 49 38 0.0 1.0 0.00 0.09 0.00 41 1013.6
20260507071713 48 38 0.0 2.0 0.00 0.09 0.00 41 1013.7
20260507071213 48 38 0.0 0.0 0.00 0.09 0.00 42 1013.7
20260507070713 48 38 0.0 0.0 0.00 0.09 0.00 41 1013.8
20260507070213 48 38 0.0 0.0 0.00 0.09 0.00 41 1013.8
20260507065713 47 38 0.0 0.0 0.00 0.09 0.00 42 1013.7
20260507065213 47 38 0.0 0.0 0.00 0.09 0.00 41 1013.7
20260507064713 48 38 0.0 0.0 0.00 0.09 0.00 41 1013.7
20260507064213 48 38 0.0 0.0 0.00 0.09 0.00 41 1013.7
20260507063713 48 38 0.0 0.0 0.00 0.09 0.00 41 1013.7
20260507063213 48 38 0.0 0.0 0.00 0.09 0.00 40 1013.7
20260507062713 48 38 0.0 1.0 0.00 0.09 0.00 40 1013.7
20260507062213 48 38 1.0 2.0 0.00 0.09 0.00 40 1013.7
20260507061713 48 38 0.0 3.0 0.00 0.09 0.00 41 1013.6
20260507061213 48 38 0.0 0.0 0.00 0.09 0.00 39 1013.6
20260507060713 48 38 0.0 0.0 0.00 0.09 0.00 40 1013.6
20260507060213 48 38 0.0 2.0 0.00 0.09 0.00 41 1013.6
20260507055713 48 38 0.0 1.0 0.00 0.09 0.09 40 1013.5
20260507055213 48 38 0.0 3.0 0.00 0.09 0.09 41 1013.5
20260507054713 48 38 0.0 0.0 0.00 0.09 0.09 41 1013.5
20260507054213 49 38 0.0 0.0 0.00 0.09 0.09 40 1013.4
20260507053713 49 38 1.0 2.0 0.00 0.09 0.09 40 1013.4
20260507053213 49 38 1.0 3.0 0.00 0.09 0.09 39 1013.5
20260507052713 50 38 0.0 2.0 0.00 0.09 0.09 38 1013.4
20260507052213 50 38 0.0 0.0 0.00 0.09 0.09 38 1013.4
20260507051713 50 38 0.0 0.0 0.00 0.09 0.09 37 1013.4
20260507051213 50 38 0.0 1.0 0.00 0.09 0.09 37 1013.5
20260507050713 50 38 0.0 0.0 0.00 0.09 0.09 36 1013.5
20260507050213 50 38 0.0 0.0 0.00 0.09 0.09 36 1013.6
20260507045713 50 38 0.0 0.0 0.00 0.09 0.09 37 1013.7
20260507045213 50 38 0.0 0.0 0.00 0.09 0.09 37 1013.7
20260507044713 50 38 0.0 0.0 0.00 0.09 0.09 37 1013.7
20260507044213 50 38 0.0 0.0 0.00 0.09 0.09 38 1013.7
20260507043713 50 38 0.0 0.0 0.00 0.09 0.09 38 1013.6
20260507043213 50 38 0.0 0.0 0.00 0.09 0.09 36 1013.6
20260507042713 50 38 0.0 0.0 0.00 0.09 0.09 37 1013.5
20260507042213 50 38 0.0 0.0 0.00 0.09 0.09 36 1013.5
20260507041713 50 38 0.0 0.0 0.00 0.09 0.09 35 1013.5
20260507041213 50 38 0.0 0.0 0.00 0.09 0.09 35 1013.5
20260507040713 50 38 0.0 0.0 0.00 0.09 0.09 35 1013.6
20260507040214 50 38 0.0 0.0 0.00 0.09 0.09 35 1013.6
20260507035713 50 38 0.0 0.0 0.00 0.09 0.09 35 1013.7
20260507035213 50 38 0.0 0.0 0.00 0.09 0.09 36 1013.7
20260507034713 50 38 0.0 0.0 0.00 0.09 0.09 36 1013.7
20260507034213 50 38 0.0 0.0 0.00 0.09 0.09 36 1013.6
20260507033713 51 38 0.0 0.0 0.00 0.09 0.09 35 1013.5
20260507033213 51 38 0.0 0.0 0.00 0.09 0.09 35 1013.5
20260507032713 51 38 0.0 0.0 0.00 0.09 0.09 35 1013.4
20260507032213 51 38 0.0 0.0 0.00 0.09 0.09 34 1013.2
20260507031714 52 38 0.0 0.0 0.00 0.09 0.09 34 1013.1
20260507031214 52 38 0.0 0.0 0.00 0.09 0.09 34 1013.1
20260507030713 52 38 0.0 0.0 0.00 0.09 0.09 35 1013.1
20260507030213 53 38 0.0 0.0 0.00 0.09 0.09 34 1013.1
20260507025714 53 38 0.0 0.0 0.00 0.09 0.09 34 1013.1
20260507025213 53 38 0.0 0.0 0.00 0.09 0.09 34 1013.1
20260507024714 54 38 0.0 0.0 0.00 0.09 0.09 32 1013.2
20260507024213 54 38 0.0 0.0 0.00 0.09 0.09 32 1013.2
20260507023714 55 38 0.0 0.0 0.00 0.09 0.09 32 1013.1
20260507023214 55 38 0.0 2.0 0.00 0.09 0.09 32 1013.1
20260507022714 55 38 0.0 0.0 0.00 0.09 0.09 30 1013.0
20260507022214 56 38 0.0 1.0 0.00 0.09 0.09 28 1013.1
20260507021714 56 38 0.0 1.0 0.00 0.09 0.09 30 1013.1
20260507021214 57 38 0.0 1.0 0.00 0.09 0.09 26 1013.0
20260507020714 57 38 0.0 2.0 0.00 0.09 0.09 26 1013.0
20260507020214 58 38 0.0 2.0 0.00 0.09 0.09 26 1013.0
20260507015714 58 38 1.0 4.0 0.00 0.09 0.09 26 1013.1
20260507015214 58 38 1.0 4.0 0.00 0.09 0.09 26 1013.1
20260507014714 59 38 0.0 3.0 0.00 0.09 0.09 25 1013.1
20260507014214 59 38 1.0 2.0 0.00 0.09 0.09 24 1013.1
20260507013714 60 38 2.0 4.0 0.00 0.09 0.09 24 1013.1
20260507013214 60 38 1.0 4.0 0.00 0.09 0.09 23 1013.1
20260507012714 60 38 1.0 4.0 0.00 0.09 0.09 23 1013.1
20260507012214 60 38 2.0 7.0 0.00 0.09 0.09 23 1013.2
20260507011714 61 37 2.0 7.0 0.00 0.09 0.09 23 1013.1
20260507011214 61 41 1.0 5.0 0.00 0.09 0.09 23 1013.2
20260507010714 61 38 1.0 4.0 0.00 0.09 0.09 24 1013.2
20260507010214 61 38 2.0 5.0 0.00 0.09 0.09 23 1013.2
20260507005714 61 39 2.0 5.0 0.00 0.09 0.09 24 1013.4
20260507005214 61 38 2.0 5.0 0.00 0.09 0.09 23 1013.3
20260507004714 61 39 3.0 5.0 0.00 0.09 0.09 23 1013.4
20260507004214 61 31 3.0 7.0 0.00 0.09 0.09 23 1013.4
20260507003714 61 29 3.0 7.0 0.00 0.09 0.09 23 1013.4
20260507003214 61 30 3.0 8.0 0.00 0.09 0.09 23 1013.3
20260507002714 61 46 2.0 6.0 0.00 0.09 0.09 24 1013.2
20260507002214 61 34 2.0 9.0 0.00 0.09 0.09 24 1013.3
20260507001714 61 28 3.0 8.0 0.00 0.09 0.09 23 1013.2
20260507001214 61 46 3.0 8.0 0.00 0.09 0.09 24 1013.3
20260507000714 60 42 3.0 8.0 0.00 0.09 0.09 24 1013.3
20260507000214 60 61 3.0 8.0 0.00 0.09 0.09 23 1013.3
20260506235714 60 71 4.0 9.0 0.00 0.09 0.09 23 1013.3
20260506235214 60 38 4.0 10.0 0.00 0.09 0.09 24 1013.3
20260506234714 60 39 4.0 8.0 0.00 0.09 0.09 23 1013.2
20260506234214 60 29 4.0 12.0 0.00 0.09 0.09 23 1013.3
20260506233714 60 47 4.0 8.0 0.00 0.09 0.09 24 1013.2
20260506233214 60 32 4.0 10.0 0.00 0.09 0.09 23 1013.2
20260506232714 61 50 3.0 9.0 0.00 0.09 0.09 23 1013.1
20260506232214 61 14 3.0 9.0 0.00 0.09 0.09 24 1013.2
20260506231714 61 62 3.0 7.0 0.00 0.09 0.09 24 1013.2
20260506231214 60 33 3.0 7.0 0.00 0.09 0.09 25 1013.2
20260506230714 60 34 4.0 9.0 0.00 0.09 0.09 24 1013.3
20260506230214 60 46 3.0 10.0 0.00 0.09 0.09 23 1013.2
20260506225714 60 64 4.0 8.0 0.00 0.09 0.09 25 1013.2
20260506225214 60 54 4.0 11.0 0.00 0.09 0.09 23 1013.2
20260506224714 61 106 3.0 13.0 0.00 0.09 0.09 24 1013.3
20260506224214 60 24 4.0 9.0 0.00 0.09 0.09 26 1013.4
20260506223714 60 57 4.0 13.0 0.00 0.09 0.09 24 1013.4
20260506223214 60 42 3.0 9.0 0.00 0.09 0.09 25 1013.4
20260506222714 60 65 3.0 11.0 0.00 0.09 0.09 26 1013.4
20260506222214 60 62 3.0 8.0 0.00 0.09 0.09 26 1013.4
20260506221714 60 31 3.0 9.0 0.00 0.09 0.09 26 1013.4
20260506221214 60 26 4.0 9.0 0.00 0.09 0.09 27 1013.5
20260506220714 60 28 4.0 10.0 0.00 0.09 0.09 27 1013.6
20260506220214 60 33 3.0 9.0 0.00 0.09 0.09 27 1013.5
20260506215714 60 28 4.0 6.0 0.00 0.09 0.09 27 1013.5
20260506215214 60 27 4.0 11.0 0.00 0.09 0.09 27 1013.7
20260506214714 60 313 4.0 12.0 0.00 0.09 0.09 27 1013.8
20260506214214 60 28 4.0 12.0 0.00 0.09 0.09 29 1013.8
20260506213714 60 34 3.0 10.0 0.00 0.09 0.09 27 1013.8
20260506213214 59 29 3.0 10.0 0.00 0.09 0.09 30 1013.9
20260506212714 59 57 3.0 9.0 0.00 0.09 0.09 27 1014.0
20260506212214 59 37 3.0 8.0 0.00 0.09 0.09 29 1014.1
20260506211714 59 33 3.0 7.0 0.00 0.09 0.09 29 1014.0
20260506211214 59 21 4.0 14.0 0.00 0.09 0.09 28 1014.0
20260506210714 59 327 3.0 11.0 0.00 0.09 0.09 29 1013.7
20260506210214 59 320 4.0 9.0 0.00 0.09 0.09 29 1014.0
20260506205714 59 35 4.0 13.0 0.00 0.09 0.09 29 1014.0
20260506205214 58 55 4.0 11.0 0.00 0.09 0.09 29 1014.0
20260506204714 58 40 4.0 9.0 0.00 0.09 0.09 28 1013.9
20260506204214 58 315 5.0 14.0 0.00 0.09 0.09 30 1013.9
20260506203714 58 53 4.0 9.0 0.00 0.09 0.09 30 1013.8
20260506203214 58 58 4.0 10.0 0.00 0.09 0.09 27 1014.0
20260506202714 58 57 4.0 14.0 0.00 0.09 0.09 30 1014.0
20260506202214 58 28 4.0 10.0 0.00 0.09 0.09 30 1014.1
20260506201714 58 326 4.0 13.0 0.00 0.09 0.09 29 1014.1
20260506201214 57 35 4.0 9.0 0.00 0.09 0.09 31 1014.1
20260506200714 57 35 5.0 10.0 0.00 0.09 0.09 28 1014.2
20260506200214 57 15 4.0 11.0 0.00 0.09 0.09 29 1014.1
20260506195714 57 22 4.0 12.0 0.00 0.09 0.09 29 1014.0
20260506195214 57 26 5.0 10.0 0.00 0.09 0.09 27 1014.0
20260506194714 57 30 4.0 10.0 0.00 0.09 0.09 28 1014.1
20260506194214 57 32 4.0 10.0 0.00 0.09 0.09 29 1014.0
20260506193714 56 48 4.0 10.0 0.00 0.09 0.09 29 1014.1
20260506193214 56 320 5.0 9.0 0.00 0.09 0.09 31 1013.9
20260506192714 56 22 5.0 13.0 0.00 0.09 0.09 27 1014.1
20260506192214 56 21 4.0 11.0 0.00 0.09 0.09 28 1014.1
20260506191714 56 19 4.0 9.0 0.00 0.09 0.09 31 1014.2
20260506191214 55 38 4.0 8.0 0.00 0.09 0.09 29 1014.1
20260506190714 55 32 4.0 10.0 0.00 0.09 0.09 29 1014.0
20260506190214 55 17 5.0 10.0 0.00 0.09 0.09 27 1014.1
20260506185716 55 69 5.0 12.0 0.00 0.09 0.09 27 1014.2
20260506185214 55 22 4.0 8.0 0.00 0.09 0.09 29 1014.0
20260506184714 55 30 4.0 11.0 0.00 0.09 0.09 29 1014.1
20260506184214 54 67 4.0 9.0 0.00 0.09 0.09 28 1014.1
20260506183714 54 42 4.0 8.0 0.00 0.09 0.09 28 1014.2
20260506183214 54 54 4.0 15.0 0.00 0.09 0.09 27 1014.3
20260506182714 54 17 4.0 8.0 0.00 0.09 0.09 30 1014.2
20260506182214 54 346 4.0 14.0 0.00 0.09 0.09 28 1014.2
20260506181714 53 30 4.0 11.0 0.00 0.09 0.09 31 1014.2
20260506181214 53 0 4.0 10.0 0.00 0.09 0.09 27 1014.2
20260506180714 53 31 4.0 10.0 0.00 0.09 0.09 28 1014.1
20260506180214 53 24 5.0 10.0 0.00 0.09 0.09 29 1014.0
20260506175714 53 47 5.0 11.0 0.00 0.09 0.09 28 1014.2
20260506175214 53 40 5.0 11.0 0.00 0.09 0.09 27 1014.1
20260506174714 53 37 5.0 11.0 0.00 0.09 0.09 27 1014.0
20260506174214 53 46 5.0 10.0 0.00 0.09 0.09 29 1013.9
20260506173714 53 16 5.0 10.0 0.00 0.09 0.09 29 1013.8